Hourly Weather Rzeczyca

Today, 14 August, Friday

Time Temperature Precipitation Wind Pressure Humidity
00:00 +18°C° 0 mm 3 mps 746 mmHg 65%
01:00 +18°C° 0 mm 3 mps 746 mmHg 71%
02:00 +17°C° 0 mm 3 mps 746 mmHg 71%
03:00 +17°C° 0 mm 2 mps 746 mmHg 71%
04:00 +17°C° 0 mm 2 mps 745 mmHg 72%
05:00 +18°C° 0 mm 2 mps 745 mmHg 70%
06:00 +19°C° 0 mm 2 mps 746 mmHg 67%
07:00 +21°C° 0 mm 2 mps 746 mmHg 65%
08:00 +23°C° 0 mm 2 mps 746 mmHg 59%
09:00 +25°C° 0 mm 3 mps 746 mmHg 54%
10:00 +27°C° 0 mm 3 mps 746 mmHg 48%
11:00 +28°C° 0 mm 3 mps 746 mmHg 45%
12:00 +28°C° 0 mm 3 mps 745 mmHg 43%
13:00 +29°C° 0 mm 3 mps 745 mmHg 40%
14:00 +29°C° 0 mm 3 mps 745 mmHg 41%
15:00 +29°C° 0 mm 3 mps 745 mmHg 43%
16:00 +28°C° 0 mm 3 mps 745 mmHg 44%
17:00 +27°C° 0 mm 3 mps 745 mmHg 50%
18:00 +25°C° 0 mm 3 mps 745 mmHg 55%
19:00 +24°C° 0 mm 3 mps 745 mmHg 61%
20:00 +22°C° 0 mm 3 mps 745 mmHg 63%
21:00 +21°C° 0 mm 3 mps 745 mmHg 64%
22:00 +20°C° 0 mm 3 mps 745 mmHg 66%
23:00 +20°C° 0 mm 3 mps 745 mmHg 69%

Tomorrow, 15 August, Saturday

Time Temperature Precipitation Wind Pressure Humidity
00:00 +19°C° 0 mm 3 mps 745 mmHg 72%
01:00 +19°C° 0 mm 3 mps 745 mmHg 76%
02:00 +18°C° 0 mm 3 mps 745 mmHg 77%
03:00 +18°C° 0 mm 3 mps 745 mmHg 77%
04:00 +18°C° 0 mm 3 mps 745 mmHg 78%
05:00 +18°C° 0 mm 3 mps 745 mmHg 76%
06:00 +19°C° 0 mm 3 mps 745 mmHg 74%
07:00 +19°C° 0 mm 4 mps 746 mmHg 72%
08:00 +21°C° 0 mm 4 mps 746 mmHg 67%
09:00 +22°C° 0 mm 4 mps 746 mmHg 62%
10:00 +23°C° 0 mm 5 mps 746 mmHg 56%
11:00 +25°C° 0 mm 5 mps 746 mmHg 54%
12:00 +26°C° 0 mm 5 mps 746 mmHg 52%
13:00 +26°C° 0 mm 5 mps 746 mmHg 50%
14:00 +26°C° 0 mm 5 mps 746 mmHg 51%
15:00 +26°C° 0 mm 5 mps 746 mmHg 52%
16:00 +26°C° 0 mm 5 mps 746 mmHg 53%
17:00 +23°C° 0 mm 4 mps 746 mmHg 59%
18:00 +22°C° 0 mm 4 mps 746 mmHg 65%
19:00 +20°C° 0 mm 3 mps 746 mmHg 71%
20:00 +19°C° 0 mm 3 mps 746 mmHg 73%
21:00 +18°C° 0 mm 3 mps 746 mmHg 75%
22:00 +17°C° 0 mm 3 mps 746 mmHg 77%
23:00 +17°C° 0 mm 3 mps 746 mmHg 77%

Day after tomorrow, 16 August, Sunday

Time Temperature Precipitation Wind Pressure Humidity
00:00 +16°C° 0 mm 3 mps 746 mmHg 78%
01:00 +14°C° 0 mm 3 mps 746 mmHg 79%
02:00 +14°C° 0 mm 3 mps 746 mmHg 80%
03:00 +14°C° 0 mm 3 mps 746 mmHg 81%
04:00 +13°C° 0 mm 3 mps 746 mmHg 82%
05:00 +14°C° 0 mm 3 mps 746 mmHg 78%
06:00 +17°C° 0 mm 4 mps 746 mmHg 75%
07:00 +18°C° 0 mm 4 mps 746 mmHg 72%
08:00 +20°C° 0 mm 4 mps 746 mmHg 66%
09:00 +21°C° 0 mm 5 mps 747 mmHg 60%
10:00 +23°C° 0 mm 5 mps 747 mmHg 54%
11:00 +25°C° 0 mm 5 mps 747 mmHg 52%
12:00 +26°C° 0 mm 5 mps 746 mmHg 51%
13:00 +27°C° 0 mm 5 mps 746 mmHg 49%
14:00 +26°C° 0.1 mm 5 mps 746 mmHg 54%
15:00 +25°C° 0.1 mm 4 mps 745 mmHg 59%
16:00 +23°C° 0.1 mm 4 mps 745 mmHg 64%
17:00 +22°C° 0 mm 3 mps 745 mmHg 68%
18:00 +21°C° 0 mm 3 mps 745 mmHg 72%
19:00 +20°C° 0 mm 2 mps 745 mmHg 76%
20:00 +20°C° 0.1 mm 3 mps 745 mmHg 80%
21:00 +19°C° 0.1 mm 3 mps 745 mmHg 84%
22:00 +19°C° 0.1 mm 4 mps 745 mmHg 88%
23:00 +19°C° 1 mm 4 mps 745 mmHg 90%

17 August, Monday

Time Temperature Precipitation Wind Pressure Humidity
00:00 +19°C° 1 mm 4 mps 745 mmHg 92%
01:00 +19°C° 1 mm 4 mps 745 mmHg 93%
02:00 +18°C° 0.2 mm 3 mps 744 mmHg 93%
03:00 +18°C° 0.2 mm 3 mps 744 mmHg 92%
04:00 +17°C° 0.2 mm 3 mps 744 mmHg 92%
05:00 +18°C° 0 mm 3 mps 744 mmHg 89%
06:00 +18°C° 0 mm 3 mps 744 mmHg 86%
07:00 +19°C° 0 mm 3 mps 744 mmHg 83%
08:00 +20°C° 0 mm 3 mps 744 mmHg 78%
09:00 +21°C° 0 mm 3 mps 744 mmHg 72%
10:00 +24°C° 0 mm 3 mps 744 mmHg 67%
11:00 +24°C° 0 mm 3 mps 744 mmHg 64%
12:00 +25°C° 0 mm 2 mps 743 mmHg 62%
13:00 +26°C° 0 mm 2 mps 743 mmHg 60%
14:00 +26°C° 0 mm 2 mps 743 mmHg 60%
15:00 +26°C° 0 mm 2 mps 743 mmHg 59%
16:00 +26°C° 0 mm 2 mps 742 mmHg 58%
17:00 +25°C° 0 mm 2 mps 742 mmHg 64%
18:00 +24°C° 0 mm 2 mps 742 mmHg 69%
19:00 +21°C° 0 mm 2 mps 742 mmHg 74%
20:00 +20°C° 0 mm 2 mps 742 mmHg 78%
21:00 +20°C° 0 mm 2 mps 742 mmHg 82%
22:00 +19°C° 0 mm 2 mps 742 mmHg 86%
23:00 +18°C° 0 mm 2 mps 742 mmHg 88%

18 August, Tuesday

Time Temperature Precipitation Wind Pressure Humidity
00:00 +18°C° 0 mm 2 mps 742 mmHg 90%
01:00 +18°C° 0 mm 2 mps 742 mmHg 93%
02:00 +17°C° 0 mm 2 mps 742 mmHg 93%
03:00 +17°C° 0 mm 2 mps 741 mmHg 94%
04:00 +18°C° 0 mm 1 mps 741 mmHg 95%
05:00 +18°C° 0 mm 2 mps 741 mmHg 90%
06:00 +19°C° 0 mm 2 mps 741 mmHg 86%
07:00 +20°C° 0 mm 2 mps 741 mmHg 82%
08:00 +21°C° 0 mm 2 mps 741 mmHg 76%
09:00 +24°C° 0 mm 2 mps 740 mmHg 70%
10:00 +25°C° 0 mm 2 mps 740 mmHg 64%
11:00 +26°C° 0 mm 2 mps 740 mmHg 60%
12:00 +27°C° 0 mm 1 mps 740 mmHg 56%
13:00 +26°C° 0 mm 0 mps 739 mmHg 52%
14:00 +28°C° 0.3 mm 1 mps 739 mmHg 54%
15:00 +27°C° 0.3 mm 1 mps 739 mmHg 57%
16:00 +27°C° 0.3 mm 2 mps 739 mmHg 60%
17:00 +25°C° 3.6 mm 3 mps 739 mmHg 70%
18:00 +22°C° 3.6 mm 3 mps 738 mmHg 81%
19:00 +20°C° 3.6 mm 4 mps 738 mmHg 91%
20:00 +20°C° 2.9 mm 4 mps 739 mmHg 92%
21:00 +19°C° 2.9 mm 4 mps 739 mmHg 93%
22:00 +19°C° 2.9 mm 5 mps 739 mmHg 94%
23:00 +19°C° 1 mm 5 mps 739 mmHg 94%

19 August, Wednesday

Time Temperature Precipitation Wind Pressure Humidity
00:00 +19°C° 1 mm 5 mps 739 mmHg 94%
01:00 +17°C° 1 mm 6 mps 739 mmHg 93%
02:00 +17°C° 0.3 mm 5 mps 739 mmHg 93%
03:00 +17°C° 0.3 mm 5 mps 739 mmHg 93%
04:00 +17°C° 0.3 mm 5 mps 739 mmHg 92%
05:00 +17°C° 0.3 mm 5 mps 739 mmHg 92%
06:00 +17°C° 0.3 mm 6 mps 739 mmHg 91%
07:00 +17°C° 0.3 mm 6 mps 739 mmHg 91%
08:00 +19°C° 0.1 mm 6 mps 740 mmHg 88%
09:00 +19°C° 0.1 mm 6 mps 740 mmHg 85%
10:00 +20°C° 0.1 mm 6 mps 740 mmHg 83%
11:00 +21°C° 0.1 mm 6 mps 740 mmHg 76%
12:00 +22°C° 0.1 mm 6 mps 740 mmHg 69%
13:00 +24°C° 0.1 mm 6 mps 740 mmHg 62%
14:00 +25°C° 0.1 mm 5 mps 740 mmHg 61%
15:00 +25°C° 0.1 mm 5 mps 740 mmHg 59%
16:00 +25°C° 0.1 mm 5 mps 740 mmHg 58%
17:00 +23°C° 0.1 mm 4 mps 740 mmHg 65%
18:00 +21°C° 0.1 mm 4 mps 739 mmHg 71%
19:00 +20°C° 0.1 mm 3 mps 739 mmHg 77%
20:00 +19°C° 0 mm 3 mps 740 mmHg 79%
21:00 +19°C° 0 mm 3 mps 740 mmHg 82%
22:00 +18°C° 0 mm 3 mps 740 mmHg 84%
23:00 +18°C° 0 mm 3 mps 740 mmHg 85%
Show more